Miscellaneous Local Product
Issued by NWS Hastings, NE

Home | Current Version | Previous Version | Graphics & Text | Print | Product List | Glossary On
Versions: 1 2 3 4 5 6 7 8 9 10 11 12 13 14 15 16 17 18 19 20 21 22 23 24 25 26 27 28 29 30 31 32 33 34 35 36 37 38 39 40 41 42 43 44 45 46 47 48 49 50
000
AXUS43 KGID 201402
MISGRI

GID CWA HOURLY WEATHER ROUNDUP
NATIONAL WEATHER SERVICE HASTINGS NE
900 AM CDT WED SEP 20 2017

NOTE: "FAIR" INDICATES FEW OR NO CLOUDS BELOW 12,000 FEET WITH NO
SIGNIFICANT WEATHER AND/OR OBSTRUCTIONS TO VISIBILITY.

...SOUTH CENTRAL NEBRASKA...

CITY           SKY/WX    TMP DP  RH WIND       PRES   REMARKS
GRAND ISLAND   SUNNY     57  49  74 NW12      29.87R
HASTINGS       SUNNY     58  47  66 N13       29.88R
KEARNEY        SUNNY     56  47  71 N9        29.90R
ORD            SUNNY     55  47  74 NW6       29.87R
YORK           SUNNY     59  50  72 N9        29.84R
AURORA         SUNNY     58  50  76 N10       29.86R
LEXINGTON      SUNNY     51  44  75 W7        29.92R
HOLDREGE       SUNNY     55  45  69 NW8       29.90R
HEBRON         SUNNY     64  53  65 N8        29.82R

...NEBRASKA PANHANDLE...

CITY           SKY/WX    TMP DP  RH WIND       PRES   REMARKS
CHADRON        SUNNY     53  28  38 SW12      29.89R
ALLIANCE       CLOUDY    50  31  48 W14       29.91R
SCOTTSBLUFF    SUNNY     52  32  46 NW13      29.92S
SIDNEY         SUNNY     55  29  36 SW5       29.98R

...WESTERN AND NORTH CENTRAL NEBRASKA...

CITY           SKY/WX    TMP DP  RH WIND       PRES   REMARKS
VALENTINE      SUNNY     55  47  74 CALM      29.87S
AINSWORTH      CLOUDY    54  49  85 CALM      29.88S
ONEILL         SUNNY     55  50  83 W8        29.88R
BROKEN BOW     SUNNY     52  45  77 W5        29.91R
IMPERIAL       SUNNY     50  36  58 W5        29.97R
NORTH PLATTE   SUNNY     50  42  74 CALM      29.95R
MCCOOK         SUNNY     51  38  60 W7        29.95R

...EASTERN NEBRASKA...

CITY           SKY/WX    TMP DP  RH WIND       PRES   REMARKS
NORFOLK        SUNNY     58  51  78 NW9       29.83R
SO SIOUX CITY  SUNNY     61  57  87 NW10      29.80R
TEKAMAH        SUNNY     66  55  67 VRB5      29.78R
COLUMBUS       SUNNY     60  51  72 NW8       29.84R
ALBION         SUNNY     55  50  83 NW12      29.86R
OMAHA EPPLEY   MOSUNNY   67  55  65 N15       29.76R
OFFUTT AFB     SUNNY     69  57  65 N13       29.75R
MILLARD        SUNNY     69  56  63 NW7       29.77R
LINCOLN        SUNNY     68  53  58 N14       29.79R
NEBRASKA CITY  SUNNY     72  72 100 NW6       29.75R
BEATRICE       SUNNY     67  54  61 N9        29.78R
FALLS CITY     SUNNY     77  70  79 S12       29.74R

...NORTHERN KANSAS...

CITY           SKY/WX    TMP DP  RH WIND       PRES   REMARKS
GOODLAND       CLOUDY    51  36  56 NW7       29.98R
HILL CITY      SUNNY     60  38  43 N15       29.92R
NORTON         SUNNY     55  34  44 NW10      29.92R
PHILLIPSBURG   SUNNY     59  45  58 NW12      29.90R
SMITH CENTER   SUNNY     57  46  67 NW9       29.88R
HAYS           CLOUDY    62  42  47 N18       29.88R
RUSSELL        SUNNY     62  45  53 N16       29.85R
CONCORDIA      SUNNY     64  52  64 N12       29.80R
SALINA         SUNNY     68  53  58 NW13      29.79R
TOPEKA         SUNNY     77  72  84 S9        29.76R



USA.gov is the U.S. government's official web portal to all federal, state and local government web resources and services.